Wind_Speed
74 75 76 76 76 76 76 76 77 77 77 78 78 78 78 78 77 76 76 75 74 74 73 73 74 74 75 76 77 78 79 80 82 83 83 84 85 85 85 86 87 87 88 88 89 89 90 90 91 91 91 92 92 92 93 93 93 93 93 92 92 93 94 94 96 98 101 103 103 102 100 101 100 100 102 103 103 104 109 112 105 100 98 99 101 102 101 100
71 72 73 73 73 73 74 74 74 75 75 76 76 77 78 78 78 77 76 76 75 74 74 73 73 73 73 74 75 76 77 78 80 81 82 83 83 84 84 85 85 86 87 87 88 89 89 90 90 91 91 92 92 92 93 93 93 93 93 93 94 95 96 96 97 100 103 103 102 101 99 100 101 103 105 106 105 105 110 111 105 100 98 99 101 102 102 101
69 70 70 70 71 71 71 71 72 72 72 73 74 75 76 77 77 77 77 76 76 75 74 73 73 73 73 73 73 74 75 77 78 80 81 82 82 83 84 84 85 85 86 86 87 88 89 89 90 91 91 91 92 93 93 93 93 94 94 94 96 97 97 98 100 102 103 102 102 102 102 103 103 106 108 106 105 107 111 111 103 99 100 99 100 101 102 101
68 68 68 69 69 69 69 70 70 70 70 70 72 73 74 75 76 77 77 77 76 76 75 74 74 73 73 73 73 73 74 75 77 78 79 80 81 82 83 83 84 85 85 86 87 88 88 89 90 91 91 91 92 93 93 93 94 95 95 95 97 99 99 100 102 103 102 101 102 105 107 105 103 106 107 105 107 109 110 107 100 98 99 98 98 98 98 97
66 66 67 67 68 68 68 69 69 69 68 69 69 70 72 73 74 75 76 76 77 76 76 75 75 74 73 73 73 73 73 74 76 76 77 78 79 80 81 82 83 84 85 86 87 87 88 89 89 90 91 92 92 93 93 94 95 95 96 97 98 99 99 100 102 102 101 102 104 107 108 105 103 105 104 103 107 106 105 102 97 94 94 93 93 93 93 92
63 64 65 66 67 67 68 68 68 68 68 68 68 69 69 71 72 73 74 75 76 76 76 76 76 75 74 74 73 73 73 74 75 74 74 76 76 77 79 80 81 82 84 84 86 87 87 88 89 90 91 91 92 92 93 94 94 94 96 97 98 99 98 99 101 100 100 101 104 106 105 103 101 101 100 100 102 100 97 96 94 90 87 87 88 89 90 88
61 62 63 64 64 65 66 66 67 67 67 68 68 68 68 69 70 71 72 73 74 74 75 76 76 76 75 75 74 74 74 75 74 73 73 74 74 75 76 77 78 79 80 82 83 84 85 86 87 88 89 89 90 91 91 92 92 93 94 95 96 96 96 96 98 97 96 97 98 99 99 98 96 95 95 94 95 92 88 88 89 85 82 82 82 85 86 83
59 60 61 62 62 63 63 64 65 65 66 66 67 67 68 68 68 69 70 71 72 72 73 74 75 75 75 75 74 75 75 75 75 73 72 72 73 73 73 73 74 75 76 77 78 79 81 82 83 83 84 85 86 86 87 88 88 89 90 91 91 91 91 92 91 91 90 90 91 92 92 90 89 88 87 88 88 84 79 81 83 80 78 77 77 80 80 78
58 58 59 60 61 61 61 62 62 62 63 63 64 65 66 66 67 67 68 69 69 70 71 72 72 73 73 74 74 75 76 76 75 75 73 73 73 72 72 72 72 72 73 73 74 75 76 77 77 78 79 79 80 80 80 81 82 83 83 83 84 84 85 84 84 84 83 84 84 85 84 83 83 81 82 83 80 76 74 75 77 76 74 73 72 74 73 72
56 56 57 58 59 59 60 59 60 60 60 61 61 62 63 64 64 65 66 67 67 68 69 69 70 71 71 72 72 73 75 75 75 75 74 73 73 73 72 72 72 72 72 72 72 73 73 73 74 74 75 75 74 75 76 76 76 76 76 77 79 78 78 78 79 79 78 78 79 79 78 78 77 76 78 78 73 70 71 71 71 71 70 68 67 67 67 66
54 54 55 56 57 58 58 58 58 58 58 58 59 59 60 60 61 62 63 64 65 65 66 67 67 68 68 69 70 71 72 72 72 73 73 73 73 73 73 72 72 72 72 72 72 72 72 72 72 73 72 71 72 73 73 72 72 73 73 74 75 73 73 74 75 75 74 74 74 73 73 73 73 73 74 70 67 68 68 66 66 67 65 64 62 62 63 61
53 53 53 54 55 56 56 56 56 56 56 56 56 57 57 57 58 59 60 61 61 62 63 63 64 65 65 66 67 68 69 69 69 70 70 71 71 71 71 71 71 71 71 71 71 71 71 71 71 70 69 70 71 70 69 70 70 70 69 70 71 70 70 71 71 69 69 69 69 68 68 69 68 69 67 63 63 64 61 61 62 62 60 59 58 58 59 58
51 52 52 53 53 54 54 55 54 54 54 54 54 54 54 54 54 55 56 57 58 59 59 60 61 62 62 63 64 64 65 66 66 66 67 67 67 68 68 68 68 68 68 68 69 69 68 68 68 67 67 67 67 65 66 67 66 66 65 66 66 66 66 66 64 63 64 64 63 62 63 63 62 62 60 58 59 57 53 55 57 56 54 54 54 53 54 54
50 50 51 51 52 53 53 53 53 53 53 52 52 51 51 51 51 52 53 53 54 55 56 57 57 58 58 59 60 60 61 62 62 62 63 63 63 63 63 64 64 64 64 64 64 64 64 64 63 63 63 63 62 62 62 62 61 61 61 61 62 62 61 59 58 59 60 59 56 57 59 58 56 57 54 53 54 50 46 47 50 51 48 48 48 47 48 48
49 49 50 50 51 52 52 53 52 52 52 51 50 49 49 49 49 49 49 50 51 51 52 52 53 54 54 55 55 55 56 57 57 58 58 58 58 59 59 59 59 59 59 59 59 59 59 59 58 58 58 57 57 57 57 56 57 57 56 57 58 57 56 54 54 55 56 53 50 52 54 54 53 51 46 47 50 46 42 40 42 45 42 42 44 43 42 42
47 48 49 49 50 51 52 52 52 52 51 50 49 49 48 48 48 47 47 47 47 48 48 47 49 49 49 50 51 50 51 52 53 53 53 53 54 54 54 54 54 54 54 54 54 54 54 53 53 53 53 53 52 53 53 53 53 53 53 54 54 53 52 52 50 51 53 50 46 46 49 52 50 43 38 42 45 41 36 34 35 38 37 38 38 38 37 37
45 47 47 48 49 50 51 52 52 51 51 50 50 49 48 47 47 46 46 46 45 45 44 44 45 44 44 46 45 46 47 48 48 48 48 48 48 49 49 49 49 49 49 49 49 49 49 49 49 49 49 49 49 50 50 50 50 50 50 51 53 52 51 51 48 47 48 47 43 42 46 49 45 38 35 36 38 37 32 30 30 32 33 33 33 34 34 33
43 45 46 47 48 49 50 51 51 51 51 51 50 49 48 48 47 46 46 46 45 43 42 42 42 40 41 41 41 42 43 44 44 44 44 44 44 44 44 44 45 45 45 45 45 46 46 46 46 47 48 48 48 49 48 48 48 49 49 51 52 50 50 49 45 42 41 41 40 41 43 44 40 36 34 31 34 36 30 26 26 28 29 30 30 32 33 33
41 43 45 46 47 49 50 51 51 51 51 51 50 50 49 48 47 46 47 46 44 43 42 42 41 40 40 40 41 42 41 41 42 41 41 42 41 41 42 42 42 43 43 43 44 44 45 45 46 47 47 48 48 48 48 48 48 48 47 48 48 47 48 48 44 40 37 36 38 40 41 40 38 36 32 30 33 33 28 24 25 27 28 29 30 31 31 32
39 41 43 44 46 48 49 50 51 51 51 51 51 50 50 49 48 48 48 46 44 44 43 43 41 40 40 40 41 42 40 40 40 40 41 41 40 40 41 41 42 43 43 44 44 45 45 46 46 47 47 48 48 47 48 48 47 46 45 45 45 45 47 46 43 39 34 34 36 38 40 40 40 36 32 33 32 30 28 27 26 27 28 28 29 30 30 31
37 39 40 42 44 46 48 49 50 51 51 51 51 51 51 50 49 49 48 46 46 45 44 44 42 40 41 42 42 42 41 40 41 41 42 41 41 41 42 42 43 43 44 45 46 47 46 46 46 46 47 48 48 47 47 46 44 44 43 43 43 44 45 44 42 38 33 34 36 37 40 42 40 36 34 34 32 31 32 29 28 28 27 26 28 29 29 30
36 37 38 40 42 44 46 47 48 50 50 50 50 51 51 50 49 49 48 47 47 46 45 45 43 42 42 42 43 43 42 42 42 42 43 42 42 42 43 44 43 44 45 45 47 47 46 45 45 44 46 47 47 45 44 44 43 43 42 42 42 44 44 42 42 38 32 34 36 37 41 42 40 38 36 35 33 34 33 32 32 30 27 27 28 30 30 30
35 36 37 38 39 41 43 44 46 48 48 49 49 50 50 50 49 49 49 48 48 46 46 46 45 44 43 43 44 44 43 42 42 43 44 43 43 44 44 44 43 44 45 45 46 46 45 44 42 42 45 46 44 43 43 43 42 42 41 42 43 44 44 43 42 38 32 33 37 40 43 42 40 38 37 38 37 35 32 34 36 32 30 29 29 31 31 30
35 35 36 37 37 38 40 41 43 44 46 47 47 48 49 49 49 49 48 48 48 47 47 46 46 46 45 44 45 45 43 43 43 44 44 43 43 45 44 43 44 45 45 44 44 45 43 42 40 41 45 45 43 43 42 42 41 41 41 42 44 44 44 43 41 38 35 35 40 43 42 40 41 39 38 40 39 36 33 36 39 35 33 32 31 32 33 32
36 36 36 37 37 37 37 38 40 41 42 43 45 46 46 47 48 47 47 46 47 47 46 47 47 47 46 44 45 44 43 44 44 44 44 44 44 45 44 43 44 44 43 42 42 43 42 40 38 42 45 44 43 43 42 42 42 42 42 43 44 45 44 43 41 40 39 40 43 42 40 41 42 40 40 41 39 36 35 38 40 38 36 33 32 34 36 35
37 38 37 37 38 38 37 37 38 38 39 40 42 43 44 45 46 45 45 45 45 45 45 46 46 46 45 43 44 44 44 45 43 41 42 45 45 43 42 43 44 43 41 40 40 42 41 37 38 43 45 44 43 43 43 43 43 43 43 43 45 45 44 43 43 40 40 44 43 40 40 42 41 40 41 41 39 35 35 39 40 39 37 34 33 35 35 36
38 39 39 39 39 39 38 38 38 37 38 39 39 39 41 43 43 43 43 42 43 42 43 44 45 46 44 41 43 44 44 44 42 41 42 44 44 42 42 43 43 42 40 39 39 41 40 37 39 44 45 44 44 44 43 43 43 44 44 44 44 45 44 44 44 42 41 44 43 39 40 41 40 41 42 40 39 35 34 37 39 38 38 35 33 34 34 36
39 39 40 40 40 40 40 39 39 38 38 39 38 37 39 39 40 41 40 39 40 40 41 42 44 45 42 40 42 44 44 43 42 41 42 43 43 41 41 42 41 41 39 38 40 41 40 39 39 43 45 45 45 45 44 44 44 45 45 45 44 45 46 45 44 42 41 42 41 40 40 40 40 42 42 40 39 36 33 36 38 38 39 36 33 32 32 34
39 40 41 41 41 41 41 42 41 40 40 40 38 38 38 37 38 38 38 39 40 40 41 42 43 44 40 39 42 43 43 42 41 41 41 42 42 41 41 40 40 40 39 38 40 41 40 39 38 41 45 45 44 44 44 43 45 46 46 45 45 46 46 44 42 41 40 39 40 42 42 40 39 41 42 39 39 36 34 35 38 39 39 37 34 32 32 33
36 40 42 41 42 42 43 44 43 42 42 41 40 39 38 37 37 37 39 40 41 41 40 41 43 42 39 39 42 42 42 42 42 40 40 42 43 41 41 40 40 41 40 39 40 41 40 38 38 41 44 44 44 43 43 43 45 45 45 45 44 45 44 42 40 40 39 38 39 43 44 39 37 40 41 40 40 38 36 36 38 41 41 38 36 36 34 32
33 36 40 42 43 43 43 45 44 44 44 43 42 40 39 38 36 38 42 42 41 41 40 42 43 41 39 40 42 42 41 42 43 41 40 43 44 42 41 41 41 42 41 41 42 42 40 38 39 42 44 44 44 43 42 44 45 45 44 43 43 43 42 40 39 40 40 39 41 45 44 39 37 39 41 42 43 40 39 39 39 41 42 40 40 40 37 31
31 33 36 40 43 44 44 45 45 46 46 45 44 42 41 38 36 40 44 42 41 42 42 43 44 41 41 43 42 42 43 44 44 43 43 44 45 44 43 43 43 44 44 43 42 42 41 40 41 43 44 44 44 42 41 44 44 43 42 42 42 42 41 39 40 41 41 41 43 44 44 42 40 41 43 45 45 42 41 43 42 42 43 44 44 42 38 33
31 32 33 35 40 44 45 46 45 46 47 47 45 44 41 39 40 43 43 41 42 44 44 45 45 43 43 44 44 44 44 45 46 45 44 45 45 45 45 44 44 46 46 43 42 42 41 41 41 42 43 44 44 41 41 43 43 42 42 42 42 42 41 41 41 42 42 41 43 45 44 44 44 44 45 46 46 44 45 47 45 44 45 47 46 42 39 39
32 32 32 33 36 39 43 46 46 46 47 47 47 45 42 41 44 46 44 42 43 44 45 47 48 46 45 45 46 45 45 46 48 47 45 45 46 46 47 46 46 48 46 42 43 42 41 40 41 42 42 42 42 42 43 44 42 43 44 42 42 43 43 43 43 44 43 42 44 46 45 46 47 47 48 49 48 47 48 49 47 47 49 49 46 43 42 46
34 33 34 34 34 35 38 42 46 47 47 47 47 45 43 44 47 47 45 45 44 44 47 50 50 48 47 47 48 48 46 47 49 48 47 46 46 47 48 48 48 48 45 44 43 41 40 40 42 44 42 40 42 46 46 45 43 44 44 44 45 45 45 45 45 46 45 43 46 47 47 49 49 49 52 52 51 51 51 50 50 51 52 50 47 46 47 50
36 35 35 35 35 34 35 37 42 44 46 47 46 44 45 48 50 49 47 46 47 47 48 49 50 50 49 49 50 49 47 49 50 49 48 48 48 49 50 50 50 48 46 46 44 41 41 43 44 44 42 41 45 47 46 46 45 45 47 48 47 46 47 47 47 47 47 47 49 50 50 51 51 52 54 54 54 54 53 52 54 55 54 51 50 50 51 53
36 38 38 38 36 35 34 35 37 39 43 44 44 45 48 50 52 51 50 50 50 49 48 48 50 51 51 51 51 50 49 51 51 50 49 50 50 51 52 53 51 49 48 47 45 43 43 45 46 45 44 45 47 47 47 48 48 48 50 51 48 48 49 50 49 50 50 50 52 53 53 53 53 54 55 56 57 57 55 55 56 57 56 55 54 55 55 54
37 39 40 40 38 36 36 37 36 36 37 37 39 44 49 51 53 53 53 53 53 51 50 50 51 52 52 52 51 51 51 52 52 51 51 52 53 52 55 56 52 50 50 49 49 47 45 47 47 46 48 49 47 47 49 49 50 52 53 52 51 51 52 52 53 54 54 54 55 55 55 55 55 56 56 57 58 59 59 58 57 57 57 57 58 59 57 56
38 40 41 41 40 39 39 38 37 35 33 32 35 41 47 50 53 54 55 55 55 54 53 53 54 54 54 54 53 52 53 53 53 53 52 54 54 54 57 59 54 51 52 52 53 50 47 48 48 48 52 52 49 49 51 52 52 54 55 54 54 54 55 55 56 57 57 57 57 56 56 56 57 57 57 58 59 61 61 60 58 57 55 56 60 60 58 56
41 41 42 42 42 42 41 39 37 36 34 34 36 39 43 45 49 52 54 56 56 54 54 56 57 58 57 57 56 55 56 56 56 56 54 56 58 57 59 60 57 55 54 54 55 52 48 48 49 51 54 54 53 53 53 54 55 56 57 57 57 58 58 58 58 58 59 58 57 57 57 57 58 58 59 59 60 61 61 60 59 57 54 56 60 59 56 56
44 43 43 43 43 44 44 41 39 38 37 38 38 40 42 43 45 47 49 53 54 54 56 58 59 59 58 57 58 58 58 58 59 59 58 60 62 61 60 62 63 59 55 55 56 53 50 49 51 54 56 56 57 56 53 55 57 58 59 59 60 60 59 59 59 59 60 59 58 58 58 58 58 58 59 60 60 60 59 59 59 57 54 55 58 57 54 54
47 46 45 45 45 45 45 43 42 41 40 40 41 42 43 44 43 43 45 47 48 50 55 58 58 59 59 59 60 60 60 61 61 62 62 62 65 64 63 65 66 63 58 56 57 56 54 54 54 56 58 58 58 57 56 58 59 60 60 61 61 60 60 60 59 60 61 60 59 58 59 59 59 58 58 59 60 59 59 59 58 56 54 54 56 56 54 53
49 48 47 48 47 46 45 45 45 44 43 44 45 45 45 45 44 44 45 44 44 46 50 52 54 57 57 58 60 60 62 62 62 62 63 64 67 67 67 67 67 66 62 59 59 60 60 59 58 59 60 60 60 60 61 63 63 61 62 63 62 61 61 61 61 61 61 61 59 59 59 60 59 58 58 59 60 59 59 58 57 55 54 54 55 56 55 52
51 51 50 50 49 48 47 47 47 46 46 47 46 46 46 46 46 46 46 45 45 45 45 46 48 48 48 51 55 58 60 62 62 63 64 67 69 68 68 69 68 67 65 63 61 62 63 62 60 60 60 60 61 62 64 67 65 61 62 62 61 60 61 60 60 62 61 61 60 60 60 61 60 58 58 59 59 59 59 58 57 56 55 55 56 56 56 54
53 52 51 51 50 50 49 49 49 48 49 49 48 48 48 48 48 48 48 49 48 46 45 45 44 41 41 46 50 52 55 57 60 61 63 66 69 68 67 68 68 66 66 66 65 64 64 62 60 60 59 59 61 63 65 66 64 61 60 59 59 61 61 60 62 62 61 61 60 59 61 61 59 58 58 59 59 60 59 58 57 57 56 57 57 57 58 57
56 54 51 51 52 53 53 53 52 51 50 50 50 50 49 50 50 50 51 51 49 47 47 47 44 42 42 45 46 47 49 50 52 54 57 61 65 64 61 61 61 61 62 64 63 62 63 62 61 60 59 58 60 63 64 64 63 61 61 59 58 60 60 62 63 61 60 61 59 59 61 60 60 59 59 59 60 60 60 60 59 59 58 58 58 57 59 59
55 53 52 52 54 56 57 56 53 52 51 51 51 51 51 52 52 53 54 53 51 50 50 48 44 43 45 46 46 46 46 46 47 49 50 53 58 56 51 50 52 53 56 57 57 58 60 60 60 59 57 57 59 61 63 64 63 62 61 60 59 59 59 61 62 61 61 61 60 61 62 61 62 63 63 62 61 61 62 62 62 61 60 60 58 58 60 61
53 52 53 54 55 57 58 56 54 54 54 53 53 53 53 54 55 56 56 54 52 52 51 47 45 46 48 48 47 46 46 44 44 45 45 49 53 52 46 46 47 48 50 53 54 55 55 56 57 56 54 55 56 58 61 63 63 62 61 60 60 61 62 62 62 63 65 63 61 62 63 62 64 66 67 66 63 62 63 64 64 63 63 62 60 60 61 63
51 51 53 55 56 57 57 57 57 57 57 56 55 53 54 55 56 57 58 55 53 52 51 47 45 47 49 48 48 48 46 43 42 44 45 49 52 51 48 47 46 44 45 48 51 51 51 52 53 52 52 53 54 56 58 61 62 61 60 60 61 63 64 63 63 64 65 64 64 65 66 66 67 68 69 68 66 64 64 64 65 66 66 65 63 61 62 62
50 51 52 54 56 57 57 58 60 60 58 57 55 55 55 56 57 58 59 57 54 53 50 46 44 47 50 50 50 49 46 44 44 45 47 51 54 53 51 49 45 42 41 46 49 48 49 51 50 49 50 51 54 56 57 59 58 57 57 58 60 61 61 62 63 64 65 65 66 68 69 70 70 69 69 69 68 67 66 65 66 67 68 67 65 64 64 64
49 50 52 53 55 57 57 58 60 59 58 56 56 58 58 58 59 60 59 58 55 52 49 46 46 50 52 53 52 50 47 46 47 48 51 55 57 55 52 50 47 44 43 46 47 46 48 52 50 48 49 49 51 54 55 55 54 52 54 57 58 59 60 61 62 63 63 64 65 67 69 70 70 68 68 69 69 67 67 67 68 69 70 70 68 67 66 66
48 49 51 53 54 55 55 56 57 57 58 57 58 60 60 59 60 60 59 58 56 53 51 50 51 54 55 54 53 52 50 50 51 53 55 57 58 57 54 52 51 49 48 48 48 46 48 51 51 50 48 48 50 51 51 51 49 49 53 56 56 57 58 59 60 61 61 60 61 65 68 68 67 67 67 69 67 66 67 69 71 72 72 72 71 69 67 67
Wind_Direction
249 250 250 250 250 250 250 250 250 250 250 250 250 250 250 250 250 251 251 251 252 252 253 253 253 253 253 254 254 254 254 254 254 254 255 255 255 255 255 255 256 256 257 257 258 258 258 259 259 260 260 260 261 261 261 262 262 263 263 263 263 263 264 264 264 265 265 266 267 268 269 270 270 270 270 269 269 270 271 272 273 274 275 275 276 276 276 275
249 249 249 250 250 250 250 250 250 250 250 250 250 251 251 251 251 251 251 252 252 253 253 253 253 253 253 254 254 254 254 254 254 254 255 255 255 255 256 256 256 257 257 258 258 258 259 259 259 260 260 260 261 261 261 262 262 262 263 263 263 263 263 264 264 265 265 267 268 269 269 269 269 269 268 269 270 271 272 272 273 275 275 275 275 276 276 276
249 249 249 249 250 250 250 251 251 251 251 251 250 251 251 251 251 251 252 252 253 253 253 254 254 254 254 254 254 254 254 254 254 254 255 255 255 255 256 256 256 257 257 258 258 258 258 259 259 260 260 260 261 261 261 262 262 262 263 263 263 263 264 264 264 265 266 267 269 269 268 267 268 269 269 270 271 271 271 272 274 275 275 275 275 275 275 275
249 249 249 249 249 250 250 251 251 251 251 251 251 251 251 251 251 251 251 252 252 253 253 254 254 254 255 255 255 255 255 255 255 255 255 255 255 256 256 256 257 257 257 258 258 258 259 259 259 260 260 260 261 261 262 262 262 263 263 263 263 264 264 264 265 266 267 268 268 268 268 268 268 269 270 272 272 271 272 273 274 275 274 274 274 273 273 273
249 249 249 249 249 250 250 250 251 251 251 252 252 252 251 251 251 251 251 252 252 253 253 253 254 254 255 255 256 256 256 256 256 256 256 256 256 256 256 257 257 257 258 258 258 259 259 259 260 260 260 261 261 262 262 262 263 264 264 264 264 265 265 266 266 267 268 268 268 269 269 270 270 270 271 271 271 272 273 275 275 274 273 273 273 272 271 271
248 249 249 249 249 250 250 250 250 251 251 252 252 252 252 252 252 252 252 252 252 252 253 253 254 254 255 255 256 256 256 257 256 256 257 257 257 257 257 257 258 258 258 259 259 260 260 261 261 261 262 262 262 263 263 264 264 265 265 265 265 266 267 267 268 268 268 269 269 270 271 271 271 271 271 271 272 272 274 275 275 273 272 272 272 271 270 271
248 248 248 249 249 249 249 250 250 250 251 251 252 252 252 253 253 253 253 253 253 253 253 253 254 254 255 255 256 256 257 257 257 257 257 258 258 258 258 259 259 259 260 260 261 261 261 262 262 262 263 263 264 264 265 265 265 266 266 267 267 267 268 268 268 269 269 270 271 271 272 272 272 272 272 272 272 273 274 275 274 273 272 271 270 270 270 270
248 248 248 248 248 249 249 250 250 250 251 251 251 252 252 253 253 253 253 254 254 254 254 254 254 255 255 255 256 256 257 257 258 258 258 259 259 259 259 260 260 260 261 261 262 262 262 263 263 263 264 264 265 265 265 266 266 266 267 267 268 268 268 268 269 270 270 270 270 271 272 273 273 273 273 273 273 274 275 273 273 272 272 271 269 269 269 269
247 247 248 248 248 248 249 249 250 250 251 251 251 252 252 252 253 253 254 254 254 255 255 255 255 255 255 256 256 256 257 257 258 258 258 259 259 260 260 261 261 261 262 262 262 263 263 263 264 264 264 265 265 266 266 266 266 267 267 268 268 268 269 269 269 269 270 270 270 271 272 273 273 273 273 272 274 275 273 271 272 273 271 270 269 269 270 269
247 247 247 247 248 248 248 248 249 250 250 251 251 251 252 252 253 253 254 254 255 255 255 256 256 256 256 256 257 257 258 258 258 259 259 259 260 260 261 261 262 262 262 263 263 263 264 264 264 264 265 265 266 266 266 266 267 268 268 268 268 269 270 270 270 269 270 270 271 271 272 273 273 272 272 273 275 274 272 271 272 272 271 270 270 269 269 268
246 247 247 247 247 247 247 247 248 249 250 250 251 251 252 252 253 253 254 254 255 255 256 256 257 257 257 257 257 258 258 259 259 259 260 260 260 260 261 261 262 262 263 263 263 264 264 264 265 265 266 266 266 266 267 267 268 268 268 269 269 270 270 270 270 270 271 271 271 272 272 272 272 272 272 275 275 272 272 273 272 271 271 271 269 268 267 266
246 246 246 246 246 246 247 247 247 248 249 249 250 251 252 252 253 254 254 255 255 256 256 256 257 257 258 258 258 258 259 259 259 260 260 260 260 261 261 261 262 262 263 263 263 264 264 265 265 266 266 266 266 267 267 267 267 268 268 269 269 269 269 269 270 271 271 270 271 272 272 272 272 273 274 275 273 272 273 272 271 271 271 269 267 266 266 264
245 245 246 246 246 245 246 246 246 247 248 248 249 250 251 252 253 254 255 255 256 256 257 257 257 257 258 258 258 258 259 259 259 260 260 260 260 261 261 261 261 262 262 263 263 263 264 264 265 265 266 266 266 266 266 266 267 267 267 267 268 268 268 269 271 271 270 270 272 272 272 272 273 273 274 274 271 271 272 271 270 269 268 268 266 265 263 262
245 245 245 245 245 245 245 245 245 246 247 247 248 249 250 252 253 254 255 256 257 257 257 257 257 257 257 258 258 258 259 259 259 259 259 260 260 260 260 261 261 261 262 262 262 263 263 264 264 264 264 265 265 264 265 266 266 266 266 267 267 268 268 270 270 270 269 271 273 272 271 272 271 272 274 273 270 269 269 269 269 268 267 265 264 262 260 260
245 245 245 245 244 244 244 245 245 245 246 246 247 248 250 251 252 254 256 257 257 258 257 257 257 257 257 257 257 258 258 258 258 258 259 259 259 260 260 260 260 260 261 261 261 262 262 262 262 262 263 263 263 263 264 264 264 265 266 266 267 268 269 269 268 270 270 271 272 272 271 270 270 273 275 271 268 268 267 266 268 268 266 262 261 260 258 257
245 245 245 245 244 244 244 244 245 245 245 246 247 248 249 251 252 254 256 257 258 258 257 257 257 256 256 256 256 257 257 257 258 258 258 258 258 259 259 259 259 259 259 259 260 260 260 260 261 261 261 261 261 262 262 263 264 266 267 267 267 267 266 266 266 268 270 270 270 270 271 270 270 272 270 268 270 269 266 262 262 265 263 260 261 259 256 252
245 245 244 244 244 244 244 244 245 245 245 246 247 248 249 251 252 254 256 256 257 257 257 256 256 256 256 256 256 256 256 256 257 257 257 256 257 257 257 257 258 258 257 258 258 258 258 258 259 259 259 260 260 261 262 264 265 265 265 265 264 264 264 265 265 266 269 271 270 267 268 270 272 269 264 267 273 269 263 260 258 259 260 258 257 256 253 249
245 244 244 244 244 244 244 244 245 245 246 246 247 248 249 251 252 253 255 255 255 256 256 256 256 256 256 256 256 255 254 255 256 256 255 255 255 255 255 255 256 256 256 256 256 256 257 257 257 258 259 260 260 261 263 263 263 262 262 262 263 265 264 263 263 263 266 270 268 265 266 270 272 268 263 263 267 267 263 259 254 251 254 254 250 249 250 249
246 245 244 244 244 244 244 244 245 245 246 246 247 248 249 250 251 253 254 254 255 255 255 256 255 255 256 256 256 255 254 255 255 255 255 254 254 253 254 254 255 255 255 255 255 256 256 257 257 258 259 260 260 261 261 260 259 260 261 262 264 264 263 262 261 259 260 263 266 268 268 268 268 267 265 260 261 266 264 257 252 247 246 248 246 245 245 244
248 246 245 244 244 244 244 245 245 245 246 246 247 248 249 250 251 252 253 254 255 255 255 256 256 255 256 256 256 256 255 254 255 255 255 254 254 253 253 254 254 254 255 255 256 255 256 256 257 258 259 259 259 258 258 258 259 260 259 260 261 263 263 263 263 259 257 257 259 265 269 268 266 266 266 263 263 267 264 257 253 250 247 246 246 243 239 238
250 248 247 245 245 245 245 245 245 246 246 247 247 248 249 250 251 252 253 254 254 255 256 256 256 256 256 256 256 256 255 255 255 255 255 254 254 254 254 254 254 254 255 255 256 256 256 256 257 258 259 258 257 256 257 258 258 258 257 258 259 262 264 265 265 261 257 255 255 260 267 270 269 268 265 264 265 266 264 260 256 252 250 249 248 245 239 234
252 251 249 247 246 246 246 246 246 246 247 247 247 248 249 250 250 252 253 254 254 255 256 257 256 256 255 255 256 256 256 256 255 255 255 255 255 255 254 254 254 255 255 255 255 255 255 256 256 257 257 256 256 255 256 256 256 256 257 257 258 260 264 265 265 263 259 261 262 262 265 268 268 267 266 264 262 261 263 265 260 252 250 248 248 249 245 238
253 252 251 249 248 247 247 247 246 247 247 247 248 248 249 250 250 251 252 253 254 255 255 256 256 255 254 255 257 257 256 256 256 256 256 256 256 256 255 255 255 255 254 254 255 255 254 254 255 255 255 254 254 254 253 254 254 256 256 258 259 261 263 264 265 266 263 264 267 265 263 265 267 267 268 267 263 260 260 263 262 255 250 248 248 252 251 246
252 252 252 251 250 249 248 248 248 248 248 248 248 248 249 250 250 250 251 253 254 254 255 255 255 254 254 254 256 256 256 256 256 256 257 257 256 256 255 256 255 254 254 254 254 255 253 253 252 252 252 252 252 251 252 253 253 255 256 258 260 261 262 264 266 267 264 262 263 263 264 267 268 268 269 268 266 263 260 260 262 258 252 248 248 252 253 250
250 250 251 251 250 250 250 250 250 249 249 250 249 249 249 249 250 250 251 252 253 254 254 254 254 254 254 254 255 257 256 255 256 257 258 257 255 255 256 255 254 253 253 253 254 254 252 252 251 250 249 250 251 251 251 252 252 253 255 258 260 261 263 265 265 264 265 263 261 263 267 268 269 269 268 267 266 266 265 263 262 261 257 251 248 249 250 250
250 249 249 249 250 250 250 250 251 251 251 251 251 251 250 250 250 250 250 251 251 252 253 253 254 254 254 254 255 255 254 254 255 256 257 256 254 254 255 254 253 253 253 252 252 253 252 250 249 249 249 249 250 251 251 252 253 254 255 257 259 262 264 265 264 263 264 264 263 265 267 267 268 269 267 267 267 266 266 266 265 265 263 258 253 251 250 250
252 250 249 248 248 249 249 249 250 251 251 251 251 252 252 252 251 250 250 250 251 251 252 252 253 253 252 253 253 252 252 253 254 253 253 255 256 255 254 254 255 254 253 251 250 250 250 248 246 248 251 251 250 250 251 252 253 254 255 257 260 262 263 263 264 263 263 265 267 266 266 267 268 267 266 268 269 267 267 268 268 268 266 263 258 256 253 252
252 252 250 249 248 248 249 249 249 250 251 252 252 252 252 253 253 252 251 251 250 249 249 249 250 252 251 251 252 252 252 252 252 252 252 255 257 256 254 255 255 255 252 251 249 249 249 247 246 249 251 251 251 252 252 253 254 255 256 258 259 260 261 261 263 264 264 265 268 267 264 264 265 267 268 269 270 270 269 269 269 269 268 266 263 260 258 256
251 251 251 250 249 248 248 249 249 249 250 251 251 251 252 253 253 252 251 250 248 247 247 249 250 251 250 249 251 252 252 252 251 251 253 254 254 253 254 254 254 254 252 251 251 250 249 248 248 250 252 253 253 255 255 256 256 256 257 257 258 259 260 262 263 263 263 264 266 266 263 262 265 268 271 272 272 271 269 268 270 270 269 269 267 264 260 258
254 251 251 251 250 249 247 248 249 249 250 251 250 250 251 252 252 251 248 248 248 248 248 249 250 250 249 248 250 252 253 253 252 250 250 253 253 251 252 252 252 253 252 251 251 251 251 251 250 250 253 255 255 255 256 256 255 255 256 257 257 258 259 261 262 262 263 263 264 265 264 264 266 269 271 273 271 271 269 267 269 270 270 270 268 265 261 258
258 254 251 250 250 249 248 247 248 248 250 250 250 250 250 250 251 250 248 247 248 249 248 249 250 250 250 248 249 251 252 253 253 251 249 251 253 252 251 252 252 252 252 251 251 252 252 252 252 253 254 255 256 256 256 255 254 254 254 255 256 257 258 260 261 262 263 264 263 265 267 269 268 269 270 270 270 271 271 269 268 269 271 271 269 266 263 260
262 259 254 251 250 249 248 247 247 247 249 249 250 250 250 251 251 250 249 249 248 249 249 249 249 248 249 250 250 251 252 252 252 251 249 250 252 252 252 252 252 252 252 251 252 254 254 252 253 254 256 257 257 256 255 254 254 254 253 253 254 256 258 259 260 261 262 264 265 267 270 271 270 269 269 270 271 272 272 270 269 269 271 271 269 269 269 267
263 261 258 254 251 249 248 248 247 246 248 249 249 250 250 251 251 250 250 250 248 248 248 250 251 248 249 251 252 251 252 252 252 251 250 251 253 254 253 252 252 253 252 252 253 254 254 253 253 255 257 258 258 257 254 253 253 254 254 253 255 257 258 258 260 261 262 264 267 269 270 272 271 271 270 270 271 271 271 270 270 271 270 270 271 274 276 274
261 261 260 257 253 251 249 249 248 247 247 248 249 249 250 251 250 250 250 249 247 247 249 250 251 250 249 251 253 252 252 253 253 252 251 252 253 255 255 254 253 254 254 253 253 253 254 255 255 254 254 256 258 258 255 253 252 252 253 254 255 257 258 260 261 262 263 265 267 269 270 271 271 271 271 270 270 270 270 270 272 272 271 271 273 276 275 272
261 259 259 258 256 253 251 250 249 248 248 248 249 249 250 250 251 250 250 250 249 248 249 250 252 253 253 253 254 254 253 254 255 254 253 253 253 255 256 256 254 254 254 254 253 254 255 255 255 254 253 253 256 256 255 254 253 253 254 253 254 256 258 259 261 263 265 266 267 267 269 269 270 271 271 272 272 271 271 273 273 272 271 273 274 274 271 269
263 260 258 257 256 255 253 252 251 250 249 248 249 250 249 248 250 251 250 250 249 248 249 252 254 256 256 255 255 255 255 255 255 255 254 253 253 254 254 255 255 255 254 254 254 254 255 255 255 255 256 254 253 254 256 256 255 254 254 253 253 255 258 259 261 263 264 265 265 266 267 268 269 270 270 272 272 272 273 273 272 272 273 273 272 270 268 268
264 262 258 256 255 255 254 253 252 251 250 249 248 248 248 248 249 250 250 249 250 250 250 252 254 255 256 256 256 256 256 255 256 256 256 255 253 253 254 254 254 255 256 255 255 254 254 256 257 257 257 255 253 254 255 256 256 255 254 254 255 256 258 260 261 262 263 263 264 265 266 267 268 268 269 270 271 271 271 270 270 272 273 273 271 269 267 267
263 262 260 257 255 254 253 252 252 252 252 252 250 249 248 248 248 248 249 249 249 249 250 251 252 253 255 256 257 257 257 256 256 256 256 256 255 254 255 254 253 254 256 257 256 254 254 256 258 259 259 256 256 256 256 256 256 255 255 255 256 257 258 260 261 262 263 264 264 265 266 266 267 267 268 270 271 271 270 269 269 270 271 272 271 269 268 268
264 261 260 258 255 253 251 251 252 252 253 253 251 249 248 247 248 248 248 248 249 249 249 250 252 252 253 255 256 256 257 258 258 257 257 258 258 256 257 256 254 254 255 256 256 256 256 258 259 260 259 258 257 256 256 256 256 257 258 258 258 258 259 260 261 263 264 264 265 265 266 267 267 268 269 270 271 271 271 270 269 268 268 269 268 268 268 268
264 261 260 258 256 254 252 251 251 251 250 248 248 249 250 249 248 248 248 248 249 249 249 250 251 252 253 255 256 257 258 259 259 259 258 258 258 257 258 260 258 255 254 255 257 258 258 259 260 259 258 259 257 255 255 258 258 259 260 260 260 259 260 261 262 263 264 265 265 266 267 267 268 269 270 270 270 270 270 271 269 267 266 266 266 267 267 267
264 261 259 258 256 254 252 250 249 248 247 247 247 247 249 249 249 248 248 248 248 248 249 249 249 251 252 254 255 256 257 258 259 259 258 259 259 258 259 261 260 257 256 258 260 260 259 258 259 259 259 259 258 257 257 258 259 259 259 260 261 261 261 262 264 265 265 266 267 268 268 268 269 269 269 269 269 269 269 268 268 268 266 265 266 266 266 265
263 260 258 257 256 254 253 250 248 247 246 246 246 246 247 248 249 249 249 249 248 247 248 249 249 250 251 251 252 254 255 256 258 259 259 260 260 260 260 260 261 261 260 260 261 261 259 258 257 259 260 261 262 262 261 259 259 260 260 260 261 263 264 265 265 266 266 267 267 268 268 268 267 267 267 268 268 267 267 266 268 269 268 267 267 267 266 266
261 260 257 256 255 254 253 251 248 246 245 245 245 246 247 248 249 249 249 250 249 247 247 249 250 250 251 252 253 254 255 256 257 259 260 260 261 262 262 262 263 264 262 261 261 262 261 258 257 259 261 262 263 264 262 260 259 260 262 263 265 266 267 267 266 266 266 267 267 266 266 266 266 266 266 266 266 266 266 267 268 268 268 268 268 269 269 268
260 258 256 255 255 254 252 251 249 247 245 245 246 247 248 249 249 250 250 250 249 248 248 249 250 251 253 254 253 253 254 254 255 256 257 258 260 260 262 263 264 266 266 265 262 261 261 260 260 260 261 263 263 263 262 262 262 263 264 266 267 266 265 265 265 265 265 266 266 266 266 265 266 266 266 266 266 266 266 267 268 268 267 267 267 269 270 269
258 256 255 255 254 253 252 251 249 247 246 246 245 246 247 248 248 248 249 249 248 248 248 248 249 249 250 250 251 252 252 253 255 256 257 258 260 260 261 263 265 266 267 267 266 265 264 263 262 261 261 261 262 262 262 264 265 263 262 263 263 264 264 264 263 264 266 267 267 267 266 267 267 267 267 267 267 267 267 266 266 267 267 267 267 268 269 269
257 255 253 253 253 252 250 248 248 247 246 247 247 247 248 249 249 249 249 249 249 249 249 249 248 248 248 249 251 252 253 254 256 257 258 259 261 262 262 264 265 266 266 266 267 267 267 265 263 261 260 260 260 261 262 263 263 263 262 261 261 262 264 264 264 265 265 265 266 266 266 267 267 266 265 264 265 266 267 266 265 265 265 266 267 268 269 269
255 254 252 250 249 250 249 248 247 248 247 246 247 247 247 248 249 250 249 249 250 249 249 250 251 251 250 251 251 252 253 255 256 257 259 261 263 265 267 267 267 267 267 266 265 265 265 265 264 262 261 260 260 261 262 262 262 262 262 262 261 261 261 262 264 264 263 262 263 264 265 266 266 266 264 263 262 264 265 266 266 265 265 265 266 267 268 269
254 252 250 248 247 248 249 249 248 247 246 245 245 246 247 247 249 250 250 250 250 250 251 251 251 251 251 252 253 254 254 256 259 262 264 265 265 266 266 264 263 263 264 265 264 263 263 264 264 264 263 261 260 260 261 262 262 262 262 261 261 261 259 259 260 261 262 263 264 264 264 264 264 264 264 264 263 263 264 265 266 266 266 266 265 265 266 268
252 251 249 248 247 247 248 248 247 246 245 245 245 245 247 248 250 251 252 252 251 252 252 252 253 254 255 255 255 255 256 257 260 262 263 263 263 263 262 259 258 259 262 263 263 264 264 264 263 263 263 262 261 260 259 259 260 261 262 262 261 260 260 260 260 260 262 263 263 262 261 261 261 262 263 265 265 264 264 265 266 267 267 268 268 267 267 268
251 250 249 248 247 246 245 246 246 246 246 246 246 246 246 248 249 250 252 253 253 253 254 254 256 257 257 256 254 254 255 256 257 258 259 260 260 260 260 260 259 258 259 260 261 262 263 263 262 261 260 259 259 259 259 259 260 261 263 263 263 262 262 262 261 260 260 260 260 260 261 260 260 261 263 265 266 266 266 266 266 267 267 267 267 266 266 266
250 249 248 248 247 246 245 245 247 248 247 247 247 247 246 246 248 249 251 253 254 255 256 256 255 256 256 256 256 255 255 255 255 255 256 257 258 258 259 260 261 258 255 255 257 259 260 262 261 259 259 258 258 258 260 261 262 263 263 262 262 262 262 261 261 260 259 259 260 261 261 262 262 263 263 264 264 266 266 266 265 264 264 265 265 265 266 267
250 248 247 248 248 248 248 247 248 249 248 247 246 248 248 248 249 251 253 254 254 254 254 253 253 253 254 255 256 255 254 253 253 253 254 256 258 259 259 260 261 261 258 256 256 256 257 259 261 260 260 259 259 259 260 261 263 263 261 260 260 261 261 262 263 263 263 262 261 261 261 261 262 263 263 263 263 264 264 265 265 266 266 267 268 268 267 267
Height
10632 10634 10637 10639 10641 10644 10646 10649 10651 10653 10656 10658 10661 10663 10665 10668 10670 10672 10674 10676 10678 10680 10683 10685 10688 10690 10692 10695 10697 10700 10702 10705 10706 10708 10710 10712 10713 10715 10718 10719 10720 10723 10725 10727 10729 10730 10731 10733 10734 10736 10737 10739 10740 10741 10743 10743 10746 10748 10750 10753 10755 10752 10752 10753 10751 10747 10740 10738 10744 10755 10762 10758 10759 10762 10755 10754 10756 10754 10738 10733 10758 10772 10775 10774 10768 10765 10764 10767
10625 10627 10629 10632 10634 10637 10639 10642 10644 10646 10649 10652 10654 10656 10658 10661 10663 10665 10667 10669 10671 10674 10676 10678 10681 10683 10686 10688 10690 10693 10695 10697 10698 10700 10703 10704 10705 10708 10710 10711 10713 10714 10717 10719 10721 10722 10723 10724 10726 10727 10729 10730 10731 10733 10735 10735 10738 10740 10741 10745 10744 10741 10743 10745 10742 10736 10733 10738 10742 10746 10753 10749 10749 10746 10740 10746 10749 10749 10733 10727 10752 10764 10766 10766 10760 10757 10752 10754
10618 10620 10623 10625 10628 10630 10632 10635 10637 10640 10642 10645 10647 10649 10651 10654 10656 10658 10660 10662 10665 10667 10670 10672 10674 10677 10679 10681 10684 10686 10688 10690 10690 10692 10695 10697 10698 10701 10702 10704 10705 10707 10709 10711 10712 10713 10715 10716 10718 10719 10720 10722 10723 10725 10727 10728 10730 10730 10733 10737 10732 10731 10735 10736 10732 10727 10729 10737 10736 10734 10737 10737 10742 10734 10730 10742 10740 10737 10724 10722 10749 10757 10754 10754 10752 10749 10742 10743
10611 10614 10616 10618 10621 10623 10626 10628 10630 10633 10636 10638 10640 10642 10644 10646 10649 10651 10653 10655 10658 10661 10663 10665 10667 10670 10672 10675 10677 10679 10682 10682 10682 10685 10688 10689 10691 10693 10695 10696 10698 10699 10701 10702 10703 10705 10706 10708 10709 10711 10712 10714 10714 10716 10718 10720 10721 10721 10725 10727 10722 10723 10727 10725 10722 10722 10726 10732 10727 10717 10719 10728 10736 10726 10726 10735 10726 10723 10718 10721 10745 10748 10741 10743 10741 10738 10734 10734
10605 10607 10610 10612 10614 10617 10619 10621 10624 10626 10629 10631 10633 10635 10637 10639 10642 10644 10646 10649 10651 10654 10656 10658 10661 10663 10666 10668 10671 10672 10675 10674 10674 10679 10681 10682 10684 10686 10687 10689 10690 10692 10693 10694 10695 10697 10698 10700 10701 10703 10704 10705 10706 10708 10710 10711 10713 10714 10715 10715 10713 10714 10718 10717 10715 10718 10720 10721 10715 10705 10709 10720 10725 10719 10722 10725 10712 10713 10716 10717 10732 10735 10731 10732 10729 10725 10723 10725
10598 10600 10603 10605 10608 10610 10612 10615 10617 10620 10622 10625 10627 10629 10630 10632 10635 10637 10639 10642 10644 10646 10649 10651 10654 10656 10659 10662 10664 10666 10668 10666 10667 10672 10673 10674 10677 10678 10680 10681 10683 10684 10685 10687 10688 10689 10690 10692 10693 10694 10695 10697 10699 10700 10701 10702 10705 10706 10705 10704 10705 10706 10709 10709 10705 10709 10713 10710 10703 10698 10702 10708 10713 10711 10711 10713 10704 10708 10716 10711 10714 10722 10722 10722 10720 10713 10710 10717
10591 10594 10596 10599 10601 10604 10606 10608 10611 10614 10616 10618 10620 10622 10624 10626 10628 10630 10632 10635 10637 10639 10642 10644 10647 10649 10652 10655 10657 10658 10659 10658 10660 10665 10666 10668 10669 10671 10672 10674 10675 10676 10678 10679 10680 10681 10683 10683 10685 10686 10687 10689 10690 10692 10693 10694 10696 10696 10695 10695 10696 10697 10700 10700 10697 10700 10704 10702 10695 10691 10693 10698 10702 10700 10700 10701 10696 10703 10713 10703 10698 10708 10711 10711 10711 10702 10701 10709
10585 10587 10590 10592 10595 10597 10600 10602 10604 10607 10609 10611 10613 10615 10617 10619 10621 10623 10625 10628 10630 10632 10635 10637 10639 10642 10645 10647 10649 10650 10650 10651 10653 10657 10660 10661 10662 10663 10665 10667 10668 10669 10671 10672 10673 10674 10674 10675 10676 10678 10679 10680 10682 10684 10685 10685 10686 10687 10687 10687 10688 10689 10689 10691 10692 10692 10693 10693 10689 10685 10686 10690 10691 10692 10691 10687 10688 10699 10704 10691 10685 10695 10700 10700 10699 10694 10695 10701
10579 10581 10584 10586 10588 10591 10593 10596 10598 10600 10602 10605 10607 10609 10611 10613 10615 10617 10619 10621 10623 10625 10627 10630 10632 10635 10637 10640 10642 10642 10642 10644 10646 10649 10652 10654 10655 10656 10658 10660 10661 10662 10663 10664 10665 10666 10667 10668 10669 10670 10671 10672 10674 10676 10677 10677 10677 10678 10680 10679 10679 10680 10681 10682 10684 10683 10684 10684 10682 10679 10680 10682 10682 10684 10680 10676 10686 10694 10687 10679 10680 10685 10687 10688 10690 10688 10689 10693
10573 10575 10577 10580 10582 10585 10587 10590 10592 10594 10596 10598 10600 10602 10604 10606 10609 10610 10612 10614 10616 10618 10620 10623 10625 10627 10630 10632 10634 10634 10634 10637 10639 10641 10644 10646 10648 10649 10651 10652 10653 10655 10656 10657 10657 10658 10659 10660 10661 10662 10663 10666 10668 10668 10667 10669 10671 10671 10673 10671 10670 10673 10674 10674 10673 10674 10676 10675 10674 10674 10674 10673 10674 10674 10669 10673 10684 10681 10672 10672 10675 10674 10675 10679 10682 10681 10682 10685
10567 10569 10571 10574 10576 10579 10581 10584 10586 10588 10590 10592 10594 10596 10598 10600 10602 10604 10606 10607 10609 10611 10614 10616 10618 10620 10623 10625 10626 10626 10627 10630 10632 10634 10636 10638 10640 10642 10643 10644 10646 10647 10648 10649 10650 10651 10652 10652 10653 10655 10657 10660 10659 10659 10660 10663 10663 10663 10665 10663 10663 10666 10666 10664 10664 10666 10668 10667 10667 10668 10667 10665 10666 10664 10663 10672 10676 10668 10664 10667 10666 10666 10668 10670 10673 10672 10674 10677
10561 10563 10566 10568 10571 10573 10575 10578 10580 10582 10584 10586 10588 10590 10592 10594 10596 10598 10599 10601 10603 10605 10607 10610 10612 10613 10615 10617 10619 10619 10620 10623 10625 10627 10628 10630 10632 10634 10635 10637 10638 10639 10640 10641 10642 10643 10644 10645 10647 10649 10651 10651 10651 10654 10654 10654 10654 10656 10658 10656 10655 10658 10657 10656 10658 10660 10658 10658 10660 10662 10659 10657 10658 10656 10659 10667 10665 10660 10660 10660 10657 10660 10662 10661 10662 10663 10665 10668
10555 10557 10560 10562 10565 10567 10570 10572 10574 10576 10578 10580 10582 10584 10586 10588 10590 10591 10593 10595 10597 10599 10601 10603 10605 10607 10609 10610 10611 10613 10614 10615 10617 10619 10621 10622 10624 10626 10628 10629 10630 10632 10632 10634 10635 10636 10637 10638 10640 10642 10643 10642 10645 10647 10645 10645 10648 10649 10650 10648 10648 10649 10649 10651 10654 10652 10649 10651 10656 10655 10650 10650 10652 10649 10655 10659 10655 10655 10656 10652 10650 10653 10656 10653 10654 10656 10656 10659
10550 10552 10554 10557 10559 10562 10564 10566 10568 10570 10572 10575 10577 10579 10581 10582 10584 10585 10587 10589 10591 10593 10595 10597 10599 10600 10602 10603 10605 10607 10607 10608 10610 10612 10613 10615 10617 10618 10620 10622 10623 10624 10625 10627 10628 10629 10631 10632 10633 10635 10636 10636 10638 10639 10638 10639 10641 10641 10642 10641 10641 10642 10643 10647 10647 10642 10642 10647 10651 10647 10642 10644 10645 10644 10651 10650 10645 10651 10653 10647 10643 10646 10651 10647 10646 10649 10650 10653
10544 10546 10549 10551 10554 10556 10558 10560 10563 10565 10567 10569 10571 10573 10575 10576 10578 10580 10582 10584 10585 10587 10589 10591 10593 10594 10596 10597 10599 10600 10601 10602 10603 10604 10607 10608 10610 10612 10613 10615 10616 10618 10619 10620 10622 10623 10624 10625 10626 10628 10629 10630 10631 10631 10632 10633 10633 10635 10636 10634 10634 10636 10638 10641 10639 10635 10636 10643 10646 10639 10634 10637 10639 10643 10646 10638 10636 10646 10649 10645 10639 10639 10644 10642 10640 10644 10645 10648
10539 10541 10543 10546 10548 10551 10552 10555 10557 10559 10561 10563 10565 10567 10569 10571 10573 10575 10577 10579 10580 10581 10584 10586 10586 10588 10590 10591 10593 10595 10595 10596 10597 10598 10601 10602 10604 10605 10606 10608 10609 10611 10613 10614 10615 10616 10618 10619 10620 10622 10622 10623 10624 10625 10626 10627 10628 10630 10630 10629 10628 10630 10632 10633 10634 10631 10629 10636 10640 10633 10627 10629 10635 10642 10640 10630 10630 10640 10644 10643 10638 10635 10636 10636 10636 10638 10641 10644
10534 10536 10538 10541 10543 10545 10547 10549 10551 10553 10556 10558 10560 10562 10564 10566 10568 10570 10572 10573 10574 10576 10579 10580 10581 10583 10585 10585 10588 10589 10589 10590 10591 10593 10595 10597 10598 10599 10601 10602 10603 10605 10607 10608 10610 10611 10612 10613 10614 10616 10616 10617 10618 10619 10621 10623 10624 10625 10624 10621 10620 10623 10625 10627 10630 10629 10626 10630 10634 10628 10622 10624 10630 10635 10634 10629 10626 10632 10638 10638 10636 10633 10632 10632 10633 10633 10636 10639
10529 10531 10533 10535 10537 10539 10541 10543 10545 10548 10550 10552 10554 10556 10559 10561 10563 10565 10566 10567 10569 10571 10574 10574 10576 10579 10579 10580 10582 10583 10584 10585 10586 10588 10589 10591 10593 10594 10595 10597 10598 10600 10601 10602 10604 10605 10607 10608 10609 10610 10610 10612 10613 10615 10616 10618 10618 10617 10617 10614 10614 10617 10618 10620 10625 10627 10624 10625 10625 10621 10619 10621 10625 10627 10629 10627 10623 10625 10633 10634 10633 10632 10629 10630 10631 10631 10632 10635
10524 10526 10528 10530 10532 10534 10536 10538 10540 10542 10544 10546 10549 10551 10553 10555 10558 10560 10560 10562 10565 10567 10568 10569 10571 10574 10575 10576 10576 10577 10579 10581 10581 10582 10584 10586 10588 10589 10591 10592 10593 10594 10596 10597 10598 10600 10602 10603 10604 10604 10606 10607 10608 10610 10610 10611 10611 10611 10612 10610 10609 10611 10610 10612 10620 10623 10623 10621 10619 10616 10615 10618 10619 10620 10623 10622 10619 10622 10628 10629 10628 10629 10628 10627 10628 10629 10631 10632
10519 10521 10523 10525 10526 10528 10530 10532 10534 10536 10539 10541 10543 10546 10547 10550 10553 10554 10555 10557 10560 10561 10563 10564 10567 10569 10570 10571 10571 10571 10574 10576 10576 10578 10579 10580 10582 10585 10586 10587 10588 10589 10590 10592 10593 10594 10596 10597 10599 10600 10601 10601 10603 10604 10603 10604 10606 10607 10608 10606 10604 10604 10602 10606 10612 10618 10620 10618 10616 10612 10610 10612 10613 10616 10618 10616 10617 10619 10622 10624 10624 10624 10625 10625 10624 10625 10627 10629
10515 10516 10518 10520 10521 10523 10525 10526 10529 10530 10533 10535 10538 10540 10542 10545 10547 10548 10550 10552 10554 10556 10558 10559 10562 10564 10565 10565 10565 10567 10569 10571 10572 10573 10573 10575 10577 10579 10580 10581 10583 10584 10585 10587 10587 10588 10591 10593 10594 10596 10595 10595 10596 10598 10598 10599 10601 10601 10602 10602 10601 10598 10597 10601 10605 10611 10615 10613 10612 10611 10607 10607 10609 10612 10613 10612 10614 10615 10616 10619 10620 10620 10621 10622 10621 10621 10624 10625
10511 10512 10513 10515 10516 10518 10519 10521 10523 10525 10527 10530 10532 10534 10536 10539 10542 10543 10545 10547 10549 10551 10553 10553 10556 10559 10560 10560 10560 10561 10564 10565 10566 10568 10568 10570 10572 10573 10574 10576 10578 10579 10580 10581 10581 10583 10586 10588 10590 10591 10588 10588 10590 10593 10593 10594 10595 10595 10596 10597 10596 10594 10594 10597 10598 10603 10610 10608 10607 10607 10603 10602 10605 10607 10608 10609 10610 10610 10612 10614 10615 10617 10618 10618 10618 10617 10620 10622
10506 10507 10509 10510 10511 10513 10514 10516 10517 10519 10522 10524 10527 10528 10530 10533 10536 10537 10540 10541 10543 10546 10547 10548 10550 10552 10553 10555 10554 10555 10559 10560 10561 10562 10562 10565 10567 10567 10568 10570 10573 10574 10573 10575 10576 10577 10580 10583 10585 10585 10581 10582 10585 10587 10588 10589 10590 10591 10592 10591 10590 10590 10590 10592 10593 10598 10604 10604 10601 10598 10597 10599 10600 10602 10603 10603 10603 10605 10609 10609 10608 10612 10614 10615 10615 10614 10615 10618
10502 10503 10504 10505 10507 10508 10509 10511 10512 10514 10516 10519 10521 10523 10525 10527 10529 10532 10534 10536 10538 10539 10542 10543 10543 10545 10547 10549 10549 10550 10554 10555 10555 10556 10557 10560 10561 10560 10563 10565 10566 10567 10567 10570 10571 10571 10574 10577 10580 10579 10575 10577 10580 10581 10583 10584 10586 10586 10586 10586 10584 10584 10585 10588 10591 10593 10596 10597 10593 10590 10594 10596 10595 10597 10598 10596 10597 10600 10604 10603 10601 10606 10609 10611 10613 10611 10610 10612
10497 10499 10500 10501 10502 10503 10505 10506 10507 10509 10512 10514 10515 10517 10520 10521 10523 10526 10529 10531 10532 10534 10536 10536 10536 10538 10541 10543 10543 10546 10548 10548 10549 10551 10552 10553 10554 10554 10557 10559 10559 10560 10563 10565 10566 10565 10568 10573 10575 10572 10570 10572 10575 10576 10578 10580 10581 10581 10582 10581 10579 10579 10580 10583 10586 10587 10589 10588 10587 10588 10591 10591 10590 10592 10592 10591 10594 10596 10597 10596 10595 10598 10602 10607 10609 10607 10606 10608
10492 10494 10495 10496 10497 10499 10501 10502 10503 10505 10508 10508 10509 10512 10514 10515 10518 10521 10524 10526 10527 10528 10529 10529 10531 10532 10534 10538 10539 10540 10541 10541 10545 10548 10546 10544 10547 10550 10552 10551 10552 10555 10558 10560 10561 10560 10563 10569 10569 10564 10564 10568 10570 10571 10573 10574 10575 10576 10577 10576 10574 10574 10576 10577 10579 10582 10583 10580 10582 10587 10587 10585 10586 10586 10585 10587 10589 10592 10592 10589 10589 10591 10594 10600 10603 10603 10604 10605
10488 10489 10490 10491 10493 10495 10496 10497 10499 10501 10502 10503 10505 10507 10507 10509 10513 10515 10519 10521 10521 10523 10523 10524 10524 10524 10529 10533 10532 10532 10535 10537 10541 10542 10539 10537 10541 10546 10546 10545 10547 10550 10553 10556 10556 10555 10558 10563 10563 10559 10560 10563 10565 10566 10568 10570 10570 10571 10570 10570 10571 10571 10571 10571 10573 10576 10577 10575 10578 10582 10581 10580 10581 10580 10580 10583 10584 10588 10589 10585 10585 10586 10587 10592 10597 10598 10599 10600
10483 10484 10485 10487 10488 10490 10491 10493 10495 10496 10497 10498 10501 10502 10503 10506 10508 10510 10514 10516 10515 10517 10516 10517 10518 10518 10524 10527 10524 10526 10529 10532 10534 10535 10535 10534 10536 10540 10540 10540 10542 10544 10548 10550 10550 10550 10553 10557 10558 10557 10556 10558 10560 10561 10564 10565 10565 10565 10565 10566 10567 10565 10565 10566 10568 10570 10572 10572 10573 10575 10575 10575 10575 10574 10575 10578 10579 10582 10585 10582 10580 10581 10581 10585 10590 10593 10594 10595
10478 10479 10480 10482 10483 10485 10487 10488 10489 10491 10492 10494 10496 10497 10499 10501 10503 10506 10509 10509 10509 10510 10511 10513 10513 10513 10520 10521 10518 10520 10524 10526 10529 10530 10531 10530 10531 10534 10534 10536 10537 10538 10542 10545 10544 10545 10548 10552 10555 10553 10551 10553 10556 10557 10559 10561 10560 10560 10560 10561 10561 10560 10560 10562 10564 10565 10567 10568 10568 10566 10567 10571 10572 10571 10570 10573 10575 10577 10580 10579 10577 10576 10575 10579 10584 10587 10589 10590
10473 10474 10475 10477 10478 10480 10481 10482 10484 10486 10487 10489 10491 10493 10495 10497 10499 10501 10503 10503 10503 10505 10508 10508 10507 10509 10514 10515 10513 10515 10519 10520 10522 10525 10526 10524 10525 10529 10530 10531 10532 10533 10537 10539 10539 10540 10544 10548 10550 10549 10547 10548 10551 10553 10555 10555 10554 10554 10554 10555 10556 10555 10556 10558 10559 10560 10561 10563 10562 10558 10560 10567 10569 10567 10567 10568 10568 10570 10573 10574 10573 10571 10570 10574 10576 10579 10582 10586
10468 10469 10470 10471 10472 10474 10475 10476 10479 10481 10482 10484 10486 10488 10490 10492 10495 10497 10495 10497 10499 10500 10503 10502 10502 10505 10508 10509 10509 10510 10513 10515 10516 10520 10522 10519 10520 10523 10525 10526 10528 10529 10531 10533 10534 10536 10540 10544 10544 10543 10543 10544 10545 10548 10550 10549 10547 10548 10549 10550 10551 10550 10552 10554 10555 10556 10557 10558 10556 10553 10555 10561 10564 10563 10562 10561 10561 10565 10567 10567 10568 10567 10566 10568 10568 10570 10576 10583
10464 10464 10464 10466 10467 10468 10469 10471 10473 10475 10476 10478 10481 10483 10485 10489 10491 10490 10489 10493 10495 10495 10496 10496 10497 10501 10501 10502 10504 10506 10507 10509 10510 10514 10516 10515 10515 10518 10520 10521 10522 10523 10525 10528 10530 10532 10535 10538 10538 10538 10538 10539 10540 10543 10544 10542 10542 10543 10544 10546 10546 10545 10548 10550 10550 10551 10552 10552 10551 10550 10552 10555 10557 10557 10557 10556 10556 10560 10561 10560 10562 10563 10562 10561 10560 10563 10570 10577
10460 10460 10460 10461 10461 10462 10464 10465 10467 10469 10470 10473 10476 10478 10482 10485 10484 10482 10483 10488 10489 10488 10491 10491 10492 10495 10496 10496 10498 10500 10501 10502 10504 10507 10510 10511 10511 10512 10513 10516 10517 10517 10518 10524 10526 10527 10529 10531 10533 10534 10533 10533 10534 10538 10538 10537 10538 10539 10539 10540 10541 10541 10542 10544 10545 10545 10546 10548 10547 10547 10548 10549 10550 10550 10551 10550 10550 10554 10555 10553 10555 10558 10556 10555 10556 10561 10566 10567
10455 10455 10455 10455 10455 10456 10458 10459 10461 10463 10465 10467 10470 10473 10478 10479 10476 10475 10478 10482 10483 10484 10486 10485 10485 10487 10490 10491 10492 10494 10496 10496 10497 10500 10504 10506 10507 10507 10507 10510 10511 10510 10513 10519 10520 10521 10525 10527 10528 10528 10528 10530 10530 10531 10531 10531 10533 10534 10533 10535 10536 10536 10537 10538 10540 10539 10541 10545 10543 10541 10543 10542 10543 10544 10543 10543 10545 10547 10547 10547 10550 10551 10549 10550 10554 10559 10561 10557
10450 10450 10450 10450 10451 10451 10452 10453 10454 10457 10460 10462 10464 10469 10473 10472 10468 10469 10473 10475 10477 10479 10479 10478 10479 10481 10484 10486 10486 10488 10491 10491 10491 10494 10497 10500 10502 10502 10502 10503 10503 10505 10509 10512 10514 10518 10521 10521 10521 10521 10523 10528 10526 10523 10524 10525 10528 10528 10528 10530 10530 10531 10532 10533 10534 10534 10537 10540 10537 10536 10537 10536 10537 10538 10536 10536 10538 10539 10540 10542 10543 10543 10543 10546 10551 10553 10552 10547
10445 10445 10445 10445 10446 10447 10448 10448 10449 10451 10453 10456 10460 10464 10465 10463 10462 10464 10467 10469 10470 10472 10473 10474 10475 10476 10478 10479 10480 10482 10486 10485 10485 10488 10491 10493 10496 10496 10495 10495 10496 10500 10504 10505 10508 10514 10515 10514 10514 10515 10519 10522 10519 10517 10519 10520 10521 10523 10521 10521 10524 10526 10526 10527 10528 10529 10531 10533 10531 10530 10531 10530 10531 10532 10530 10530 10530 10531 10534 10536 10534 10534 10537 10541 10544 10544 10543 10540
10440 10439 10439 10439 10440 10443 10443 10443 10444 10446 10447 10451 10455 10457 10456 10456 10456 10458 10460 10462 10463 10466 10469 10470 10470 10470 10471 10472 10474 10477 10478 10478 10479 10482 10484 10486 10488 10488 10488 10488 10491 10494 10497 10499 10503 10508 10509 10508 10508 10511 10513 10513 10512 10514 10514 10514 10514 10515 10513 10514 10519 10521 10520 10521 10522 10522 10524 10525 10524 10525 10525 10525 10526 10525 10525 10525 10524 10524 10527 10528 10527 10528 10531 10533 10534 10534 10533 10535
10435 10433 10432 10433 10436 10437 10437 10437 10439 10441 10443 10446 10449 10449 10448 10448 10448 10451 10453 10454 10457 10460 10463 10463 10463 10464 10465 10465 10468 10470 10470 10471 10474 10476 10478 10477 10479 10482 10480 10480 10486 10490 10491 10493 10495 10500 10504 10503 10503 10506 10504 10504 10508 10509 10508 10508 10508 10506 10506 10509 10513 10514 10513 10515 10515 10515 10517 10518 10518 10518 10519 10519 10519 10519 10519 10519 10517 10517 10518 10521 10522 10523 10525 10526 10524 10523 10525 10528
10430 10428 10426 10428 10430 10430 10431 10433 10435 10437 10439 10441 10441 10440 10439 10440 10441 10443 10445 10447 10449 10453 10456 10456 10456 10457 10458 10459 10461 10463 10463 10464 10466 10468 10472 10470 10471 10474 10470 10470 10480 10485 10485 10487 10487 10493 10499 10498 10499 10500 10495 10497 10503 10502 10500 10500 10500 10500 10500 10503 10506 10506 10506 10508 10508 10508 10510 10510 10511 10512 10512 10513 10512 10513 10514 10513 10511 10509 10508 10512 10515 10517 10521 10519 10513 10514 10519 10520
10423 10422 10421 10422 10423 10424 10425 10428 10430 10432 10434 10434 10434 10433 10432 10433 10434 10435 10438 10440 10442 10447 10449 10450 10449 10450 10452 10454 10456 10457 10457 10457 10459 10461 10465 10463 10462 10466 10463 10463 10470 10475 10479 10480 10481 10487 10494 10493 10493 10491 10487 10490 10493 10494 10494 10494 10494 10495 10494 10494 10496 10497 10498 10500 10501 10501 10502 10503 10504 10505 10505 10506 10506 10505 10506 10505 10504 10502 10501 10502 10504 10509 10515 10511 10504 10508 10513 10512
10415 10416 10416 10416 10417 10417 10419 10423 10425 10426 10427 10427 10427 10427 10426 10426 10427 10429 10431 10433 10436 10440 10441 10441 10442 10443 10446 10449 10449 10449 10449 10451 10451 10453 10456 10455 10453 10458 10459 10456 10458 10465 10473 10475 10475 10481 10487 10487 10485 10481 10480 10482 10482 10486 10491 10489 10486 10486 10486 10486 10487 10488 10491 10493 10494 10494 10494 10496 10498 10498 10498 10498 10499 10498 10497 10496 10495 10495 10495 10494 10494 10499 10505 10503 10498 10501 10506 10506
10407 10409 10410 10409 10410 10411 10413 10416 10418 10419 10421 10421 10420 10420 10419 10420 10422 10423 10425 10425 10430 10433 10431 10432 10436 10437 10439 10441 10441 10442 10443 10444 10444 10445 10448 10447 10444 10448 10452 10450 10450 10456 10465 10469 10469 10473 10476 10478 10477 10473 10472 10474 10475 10478 10482 10480 10477 10477 10478 10478 10479 10482 10484 10486 10488 10486 10486 10488 10490 10491 10490 10490 10490 10490 10489 10487 10486 10487 10487 10487 10488 10491 10495 10495 10492 10494 10498 10500
10399 10401 10402 10402 10403 10405 10407 10409 10410 10412 10414 10413 10412 10413 10414 10415 10417 10417 10418 10420 10423 10424 10424 10427 10428 10429 10432 10434 10435 10436 10437 10438 10440 10440 10440 10438 10436 10440 10443 10443 10445 10448 10454 10461 10463 10464 10463 10466 10469 10468 10467 10469 10470 10470 10468 10466 10469 10472 10471 10471 10476 10478 10477 10478 10479 10479 10478 10479 10481 10482 10481 10480 10481 10482 10482 10480 10479 10479 10479 10480 10482 10484 10486 10487 10485 10486 10489 10492
10391 10393 10395 10395 10396 10398 10400 10401 10403 10405 10406 10405 10407 10408 10408 10410 10411 10411 10412 10414 10415 10417 10419 10421 10421 10424 10428 10428 10428 10429 10430 10432 10433 10433 10433 10429 10428 10434 10436 10435 10438 10441 10444 10449 10453 10453 10453 10456 10461 10463 10463 10463 10462 10459 10456 10454 10461 10469 10468 10467 10470 10469 10468 10469 10469 10469 10471 10471 10472 10473 10471 10470 10473 10475 10474 10473 10472 10471 10472 10474 10475 10476 10479 10480 10479 10479 10480 10482
10382 10384 10387 10389 10390 10391 10392 10393 10394 10397 10398 10398 10400 10401 10402 10403 10404 10405 10405 10405 10407 10411 10413 10413 10415 10420 10421 10420 10420 10421 10422 10424 10425 10426 10427 10423 10420 10425 10430 10430 10432 10436 10437 10437 10440 10443 10444 10447 10453 10455 10455 10456 10453 10450 10448 10448 10453 10459 10461 10461 10460 10457 10458 10461 10460 10461 10464 10463 10464 10465 10461 10461 10465 10467 10467 10466 10464 10463 10465 10467 10468 10469 10471 10472 10472 10472 10472 10473
10371 10376 10380 10382 10382 10382 10382 10383 10386 10389 10391 10392 10394 10395 10396 10397 10397 10398 10398 10398 10401 10405 10405 10407 10411 10413 10414 10414 10415 10415 10416 10418 10420 10420 10420 10417 10413 10416 10424 10426 10427 10430 10430 10429 10433 10435 10434 10437 10441 10443 10446 10448 10445 10442 10441 10441 10444 10447 10450 10453 10454 10451 10451 10451 10451 10456 10456 10455 10457 10456 10453 10454 10456 10457 10458 10458 10456 10455 10456 10458 10460 10462 10464 10464 10465 10466 10464 10464
10362 10368 10371 10372 10372 10371 10371 10375 10379 10382 10384 10386 10387 10388 10389 10390 10390 10390 10390 10392 10396 10397 10398 10402 10407 10407 10406 10407 10408 10409 10411 10413 10414 10414 10415 10413 10408 10410 10418 10422 10423 10423 10422 10422 10426 10426 10425 10426 10429 10433 10437 10439 10437 10435 10433 10433 10436 10438 10441 10445 10447 10446 10445 10443 10444 10446 10446 10448 10450 10447 10446 10448 10447 10445 10446 10447 10450 10450 10448 10448 10450 10453 10456 10458 10459 10459 10457 10456
10355 10359 10360 10361 10362 10362 10363 10368 10372 10373 10375 10377 10378 10380 10381 10382 10382 10381 10382 10386 10389 10390 10393 10399 10401 10399 10398 10400 10402 10404 10406 10409 10410 10410 10411 10408 10402 10405 10412 10414 10416 10417 10415 10415 10415 10416 10418 10419 10420 10423 10427 10429 10429 10429 10426 10425 10427 10430 10433 10437 10438 10437 10436 10437 10438 10436 10436 10442 10445 10441 10439 10441 10438 10434 10434 10437 10443 10445 10443 10441 10441 10443 10446 10449 10452 10453 10451 10450
10346 10348 10349 10351 10353 10355 10357 10359 10361 10363 10365 10368 10371 10374 10374 10375 10375 10374 10375 10379 10383 10385 10388 10394 10396 10394 10394 10396 10397 10399 10402 10406 10406 10405 10404 10400 10395 10398 10402 10404 10408 10411 10411 10409 10407 10409 10412 10412 10413 10416 10418 10420 10420 10420 10419 10418 10419 10422 10426 10428 10428 10426 10427 10429 10431 10430 10431 10434 10435 10432 10430 10431 10428 10426 10425 10428 10434 10437 10437 10436 10434 10434 10435 10439 10443 10446 10446 10445
10338 10339 10340 10342 10343 10346 10348 10349 10349 10352 10357 10361 10365 10367 10367 10367 10367 10366 10368 10371 10376 10380 10384 10390 10391 10388 10387 10388 10390 10394 10398 10399 10398 10397 10395 10391 10388 10390 10393 10395 10401 10405 10406 10403 10401 10405 10406 10403 10406 10410 10411 10412 10411 10409 10410 10410 10412 10417 10420 10419 10418 10418 10419 10420 10421 10422 10423 10423 10423 10422 10420 10419 10419 10420 10422 10422 10424 10428 10430 10430 10428 10426 10426 10429 10433 10436 10436 10436
10329 10330 10331 10332 10333 10335 10339 10341 10342 10346 10351 10356 10357 10356 10357 10359 10358 10359 10362 10366 10371 10375 10379 10384 10384 10379 10377 10380 10384 10388 10391 10391 10390 10388 10386 10382 10380 10383 10386 10388 10392 10397 10399 10396 10396 10400 10399 10395 10398 10402 10402 10404 10403 10402 10403 10404 10407 10412 10412 10409 10408 10409 10410 10410 10410 10411 10412 10414 10415 10413 10411 10409 10410 10415 10418 10416 10417 10420 10421 10419 10417 10417 10417 10418 10422 10426 10427 10427
10320 10322 10323 10323 10324 10327 10332 10336 10338 10341 10343 10346 10348 10347 10349 10352 10352 10355 10359 10360 10364 10369 10372 10375 10373 10370 10370 10373 10376 10379 10382 10382 10381 10378 10376 10374 10373 10376 10380 10383 10384 10387 10389 10389 10391 10394 10393 10389 10390 10393 10395 10396 10396 10396 10397 10399 10403 10405 10401 10399 10400 10401 10402 10402 10402 10402 10402 10405 10407 10403 10400 10401 10404 10408 10408 10406 10410 10414 10412 10408 10406 10407 10408 10409 10412 10416 10419 10419